Regional Weather Roundup
Issued by NWS

Home | Current Version | Previous Version | Graphics & Text | Print | Product List | Glossary Off
Versions: 1 2 3 4 5 6 7 8 9 10 11 12 13 14 15 16 17 18 19 20 21 22 23 24 25 26 27 28 29 30 31 32 33 34 35 36 37 38 39 40 41 42 43 44 45 46 47 48 49 50

000
ASUS43 KMPX 191910
RWRMN
WEATHER ROUNDUP FOR MINNESOTA
NATIONAL WEATHER SERVICE TWIN CITIES/CHANHASSEN MN
200 PM CDT SUN APR 19 2015


NOTE: "FAIR" INDICATES FEW OR NO CLOUDS BELOW 12,000 FEET WITH NO
SIGNIFICANT WEATHER AND/OR OBSTRUCTIONS TO VISIBILITY. N/A MEANS
CURRENT SKY AND/OR WEATHER CONDITIONS ARE NOT AVAILABLE.

MNZ060>063-068>070-192000-
   Twin Cities Metro

CITY           SKY/WX    TMP DP  RH WIND       PRES   REMARKS
TWIN CITIES    CLOUDY    59  53  80 W14       29.61F
ST PAUL        CLOUDY    59  55  87 S6        29.61F
CRYSTAL        CLOUDY    57  48  72 W15       29.62S
BLAINE         CLOUDY    57  54  88 W10       29.62F
LAKEVILLE      CLOUDY    55  52  88 W15       29.62S
EDEN PRAIRIE   CLOUDY    56  48  74 W15G21    29.62F
SOUTH ST PAUL  RAIN      59  56  89 S8        29.60F
LAKE ELMO      DRIZZLE   57  54  88 S5        29.62F
$$
MNZ001>005-007-008-013>017-022>024-027-028-192000-
   Northwest Minnesota

CITY           SKY/WX    TMP DP  RH WIND       PRES   REMARKS
BEMIDJI        RAIN      46  44  93 SW5       29.60F
HALLOCK        LGT RAIN  39  37  93 NW26G36   29.68S
ROSEAU         LGT RAIN  46  41  81 NW6       29.60S
WARROAD        LGT RAIN  39  36  87 N5        29.60F
THIEF RVR FALL CLOUDY    45  41  87 NW18      29.65R
CROOKSTON      LGT RAIN  43  43 100 N29G35    29.69R
FOSSTON        DRIZZLE   43  41  93 W15G24    29.64F
DETROIT LAKES  LGT RAIN  43  43 100 NW18G24   29.67F
MOORHEAD       LGT RAIN  46  39  76 NW21G26   29.71S
PARK RAPIDS    CLOUDY    48  43  82 W21G28    29.62S
MAHNOMEN       CLOUDY    44  42  93 NW17      29.65F
$$
MNZ006-009>011-018-025>026-192000-
   North Central Minnesota

CITY           SKY/WX    TMP DP  RH WIND       PRES   REMARKS
BAUDETTE       CLOUDY    44  40  85 SW6       29.60F
FLAG ISLAND    DRIZZLE   39  37  93 CALM      29.60F
INTL FALLS     CLOUDY    43  40  89 SW6       29.60S
WASKISH        CLOUDY    45  41  87 CALM      29.61R
BIG FORK       CLOUDY    45  41  87 SW7       29.60S
LONGVILLE      CLOUDY    45  45 100 NW6       29.60F
GRAND RAPIDS   CLOUDY    45  41  87 S3        29.60S
ORR            DRIZZLE   43  39  87 CALM      29.58S
COOK           DRIZZLE   43  43 100 SE5       29.60F
WALKER         CLOUDY    46  42  86 W5        29.60F
$$
MNZ012-019>021-037-192000-
   Northeast Minnesota

CITY           SKY/WX    TMP DP  RH WIND       PRES   REMARKS
DULUTH         LGT RAIN  39  38  96 SE8       29.61S VSB 1/2
ELY            DRIZZLE   39  37  93 SE5       29.62F
HIBBING        CLOUDY    43  40  89 SE7       29.61F FOG
EVELETH        CLOUDY    43  41  93 S6        29.62F FOG
DULUTH HARBOR  CLOUDY    37  36  93 NE16      29.65F
TWO HARBORS    DRIZZLE   41  36  81 NE9       29.62F
SILVER BAY     CLOUDY    37  36  93 NE8       29.64F FOG
GRAND MARAIS     N/A     38  34  85 NE15G24   29.70F
G MARAIS ARPRT LGT RAIN  36  30  80 E9        29.66F
$$
MNZ029>031-032-039>041-046>048-054>057-064-192000-
   West Central Minnesota

CITY           SKY/WX    TMP DP  RH WIND       PRES   REMARKS
FERGUS FALLS   CLOUDY    46  43  87 NW22G33   29.71S
WHEATON        CLOUDY    46  37  71 NW21      29.75S
MORRIS         CLOUDY    48  41  76 NW23G30   29.72R
ALEXANDRIA     CLOUDY    45  41  86 NW18G26   29.70R FOG
ELBOW LAKE     CLOUDY    46  41  83 NW18G32   29.71S
WADENA         CLOUDY    45  43  93 NW15G23   29.65R
GLENWOOD       CLOUDY    46  43  87 NW25      29.69S
APPLETON       CLOUDY    52  41  66 NW22G29   29.73F
BENSON         CLOUDY    48  41  76 N18G25    29.72S
ORTONVILLE     PTSUNNY   52  36  54 NW24G31   29.74S
MADISON        CLOUDY    52  37  58 NW18G31   29.74F
WILLMAR        PTSUNNY   48  45  87 NW28      29.71R
$$
MNZ033>034-036-042>043-049>051-058-059-192000-
   Central Minnesota

CITY           SKY/WX    TMP DP  RH WIND       PRES   REMARKS
ST CLOUD       CLOUDY    54  45  71 NW15      29.63S
SAUK CENTRE    CLOUDY    47  43  88 W21G26    29.66S
PAYNESVILLE    CLOUDY    45  44  96 W18       29.68R
AITKIN         CLOUDY    48  45  87 CALM      29.58F HAZE
PINE RIVER     CLOUDY    46  46 100 NW5       29.65S
BRAINERD       CLOUDY    48  44  86 W14       29.62R
STAPLES        RAIN      46  45  93 W20G25    29.64R
LONG PRAIRIE   CLOUDY    45  43  93 W18G26    29.66R
LITTLE FALLS   CLOUDY    50  43  76 W14G21    29.63S
LITCHFIELD     CLOUDY    54  48  82 W17       29.67R
BUFFALO        CLOUDY    55  46  71 W10G17    29.64F
MAPLE LAKE     CLOUDY    56  49  74 W13G18    29.64F
$$
MNZ037-044-045-052-053-192000-
   East Central Minnesota

CITY           SKY/WX    TMP DP  RH WIND       PRES   REMARKS
PRINCETON      CLOUDY    54  48  82 W12G17    29.63R
MORA           DRIZZLE   50  48  93 S6        29.62S
CAMBRIDGE      RAIN      55  46  71 W8        29.59S
RUSH CITY      CLOUDY    55  50  83 S6        29.61S
MOOSE LAKE     CLOUDY    46  45  93 CALM      29.59F FOG
HINCKLEY       CLOUDY    52  48  87 SW7       29.61S
CLOQUET        CLOUDY    41  39  93 E5        29.61F FOG
MCGREGOR       CLOUDY    46  45  93 S5        29.60F
$$
MNZ071>073-080-081-089-090-097-098-192000-
   Southwest Minnesota

CITY           SKY/WX    TMP DP  RH WIND       PRES   REMARKS
MONTEVIDEO     CLOUDY    48  45  87 N18G26    29.73S
GRANITE FALLS  CLOUDY    51  43  75 NW21G30   29.74S
CANBY          CLOUDY    51  39  64 NW15G26   29.76F
MARSHALL       CLOUDY    52  37  58 N25G31    29.73S
REDWOOD FALLS  CLOUDY    53  44  71 NW16G29   29.70R
OLIVIA         CLOUDY    46  41  81 NW24G32   29.69S
PIPESTONE      CLOUDY    50  39  66 NW20G37   29.75S
WINDOM         CLOUDY    50  45  81 NW24G33   29.71S
WORTHINGTON    CLOUDY    48  43  81 NW26G35   29.72F
JACKSON        CLOUDY    52  45  76 NW22G32   29.69F
TRACY          CLOUDY    52  45  77 NW24G32   29.73F
SLAYTON        CLOUDY    49  44  85 NW20G26   29.74S
$$
MNZ065>067-074>077-082>085-091>093-192000-
   South Central Minnesota

CITY           SKY/WX    TMP DP  RH WIND       PRES   REMARKS
MANKATO        CLOUDY    55  45  67 NW20G25   29.65F
NEW ULM        CLOUDY    52  46  82 NW17G30   29.67F
ST JAMES       CLOUDY    52  48  87 NW17G28   29.69F
FAIRMONT       CLOUDY    54  45  71 NW24      29.65F
GLENCOE        CLOUDY    55  50  82 W15       29.65S
FARIBAULT      DRIZZLE   55  52  88 W13G23    29.63S
OWATONNA       LGT RAIN  57  54  88 NW14      29.62F
ALBERT LEA     LGT RAIN  59  57  94 NW6       29.61F
$$
MNZ078>079-086>088-094>096-192000-
   Southeast Minnesota

CITY           SKY/WX    TMP DP  RH WIND       PRES   REMARKS
ROCHESTER      CLOUDY    61  53  75 CALM      29.62F
RED WING       CLOUDY    64  52  63 SE5       29.60F
STANTON        CLOUDY    60  56  86 CALM      29.60F FOG
DODGE CENTER   PTSUNNY   63  55  77 SE5       29.61F
WINONA         CLOUDY    61  45  55 SE9       29.63F
AUSTIN         PTSUNNY   61  54  77 CALM      29.60F
PRESTON        CLOUDY    59  51  74 CALM      29.63F
$$
ABBREVIATIONS USED IN REMARKS
   TC - TEMPERATURES IN CELSIUS
  WCI - WIND CHILL INDEX
   HX - HEAT INDEX
  VSB - VISIBILITY
$$



USA.gov is the U.S. government's official web portal to all federal, state and local government web resources and services.